Location: Reeth
(54.3881°N, 1.9432°W)
Time: 00:12:20
(UTC+00:00)

Envisat - Visible Passes

Search period start: 26 January 2021 00:00
Search period end: 05 February 2021 00:00
Orbit: 764 x 766 km, 98.1° (Epoch: 25 January)

Date Brightness Start Highest point End Pass type
(mag) Time Alt. Az. Time Alt. Az. Time Alt. Az.
26 Jan 4.1 05:36:33 10° NNE 05:41:28 46° E 05:46:21 10° S visible
26 Jan 3.6 07:15:50 10° N 07:20:25 35° WNW 07:24:59 10° SW visible
26 Jan 6.2 18:40:29 10° WSW 18:42:55 13° W 18:45:22 10° NW visible
27 Jan 5.2 05:00:10 10° NE 05:04:21 25° E 05:08:31 10° SE visible
27 Jan 3.0 06:38:45 10° N 06:43:47 62° WNW 06:48:48 10° SSW visible
27 Jan 5.5 18:01:26 10° SW 18:05:35 25° W 18:09:47 10° NW visible
28 Jan 6.1 04:24:35 10° NE 04:27:01 13° E 04:29:26 10° ESE visible
28 Jan 3.2 06:01:52 10° NNE 06:06:59 72° ESE 06:12:03 10° S visible
28 Jan 4.3 17:23:35 10° S 17:28:28 46° W 17:33:22 10° NNW visible
29 Jan 4.4 05:25:14 10° NNE 05:29:59 38° E 05:34:43 10° SSE visible
29 Jan 3.4 07:04:18 10° N 07:09:05 41° WNW 07:13:49 10° SW visible
29 Jan 6.0 18:28:11 10° SW 18:31:20 16° W 18:34:29 10° NW visible
30 Jan 5.5 04:48:59 10° NE 04:52:48 21° E 04:56:36 10° SE visible
30 Jan 2.9 06:27:18 10° NNE 06:32:24 75° WNW 06:37:28 10° SSW visible
30 Jan 5.2 17:49:37 10° SSW 17:54:03 30° W 17:58:32 10° NNW visible
31 Jan 6.2 04:14:12 10° ENE 04:15:24 11° E 04:16:36 10° E visible
31 Jan 3.6 05:50:29 10° NNE 05:55:32 60° E 06:00:33 10° S visible
01 Feb 4.8 05:13:56 10° NNE 05:18:29 32° E 05:23:01 10° SSE visible
01 Feb 3.2 06:52:49 10° N 06:57:43 49° WNW 07:02:36 10° SW visible
01 Feb 5.9 18:16:06 10° SW 18:19:45 20° W 18:23:26 10° NW visible
02 Feb 5.8 04:37:53 10° NE 04:41:14 17° E 04:44:34 10° SE visible
02 Feb 3.0 06:15:51 10° NNE 06:20:59 89° WNW 06:26:04 10° SSW visible
02 Feb 4.8 17:37:52 10° SSW 17:42:32 36° W 17:47:15 10° NNW visible
03 Feb 4.0 05:39:07 10° NNE 05:44:04 49° E 05:49:00 10° S visible
03 Feb 6.3 18:43:27 10° WSW 18:45:33 12° W 18:47:40 10° WNW visible
04 Feb 5.1 05:02:40 10° NE 05:06:58 27° E 05:11:13 10° SSE visible
04 Feb 3.0 06:41:20 10° N 06:46:21 59° WNW 06:51:20 10° SW visible
04 Feb 5.7 18:04:09 10° SW 18:08:12 24° W 18:12:16 10° NW visible
